OK1VCF-8 Weather Reports


time (UTC)temp
F
wind
direction
speed
knots
gust
knots
rain 1hr
in
rain 24hr
in
rain mn
in
humidity
%
barometer
mb
20260901182206 66 0 0.0 0.0 0.00 0.00 0.00 60 1021.2
20260901181447 68 0 0.0 0.0 0.00 0.00 0.00 58 1021.2
20260901180730 68 0 0.0 0.0 0.00 0.00 0.00 56 1021.2
20260901180010 68 0 0.0 0.0 0.00 0.00 0.00 56 1021.0
20260901175252 68 0 0.0 0.0 0.00 0.00 0.00 56 1020.9
20260901174535 68 0 0.0 0.0 0.00 0.00 0.00 56 1021.0
20260901173818 68 0 0.0 0.0 0.00 0.00 0.00 56 1020.9
20260901173058 68 0 0.0 0.0 0.00 0.00 0.00 55 1020.9
20260901172340 69 0 0.0 0.0 0.00 0.00 0.00 54 1020.8
20260901171621 70 0 0.0 0.0 0.00 0.00 0.00 52 1021.0
20260901170904 71 0 0.0 0.0 0.00 0.00 0.00 50 1020.9
20260901170147 72 0 0.0 0.0 0.00 0.00 0.00 50 1020.9
20260901165144 73 0 0.0 0.0 0.00 0.00 0.00 48 1021.0
20260901164428 75 0 0.0 0.0 0.00 0.00 0.00 44 1021.0
20260901163710 82 0 0.0 0.0 0.00 0.00 0.00 36 1021.0
20260901162952 83 0 0.0 0.0 0.00 0.00 0.00 36 1020.9
20260901162235 86 0 0.0 0.0 0.00 0.00 0.00 33 1020.8
20260901161516 86 0 0.0 0.0 0.00 0.00 0.00 34 1020.8
20260901160758 86 0 0.0 0.0 0.00 0.00 0.00 34 1020.8
20260901160040 86 0 0.0 0.0 0.00 0.00 0.00 33 1020.8
20260901155320 86 0 0.0 0.0 0.00 0.00 0.00 33 1020.8
20260901154605 84 0 0.0 0.0 0.00 0.00 0.00 34 1021.0
20260901153849 86 0 0.0 0.0 0.00 0.00 0.00 32 1020.9
20260901153130 86 0 0.0 0.0 0.00 0.00 0.00 33 1021.0
20260901152409 84 0 0.0 0.0 0.00 0.00 0.00 34 1021.0
20260901151651 83 0 0.0 0.0 0.00 0.00 0.00 35 1021.0
20260901150932 77 0 0.0 0.0 0.00 0.00 0.00 43 1021.1
20260901145929 76 0 0.0 0.0 0.00 0.00 0.00 43 1021.2
20260901145213 75 0 0.0 0.0 0.00 0.00 0.00 44 1021.2
20260901144455 76 0 0.0 0.0 0.00 0.00 0.00 42 1021.3
20260901143735 77 0 0.0 0.0 0.00 0.00 0.00 42 1021.4
20260901143017 76 0 0.0 0.0 0.00 0.00 0.00 42 1021.2
20260901142258 77 0 0.0 0.0 0.00 0.00 0.00 42 1021.4
20260901141539 76 0 0.0 0.0 0.00 0.00 0.00 44 1021.4
20260901140821 76 0 0.0 0.0 0.00 0.00 0.00 44 1021.3
20260901140104 76 0 0.0 0.0 0.00 0.00 0.00 46 1021.4
20260901135344 76 0 0.0 0.0 0.00 0.00 0.00 46 1021.6
20260901134626 74 0 0.0 0.0 0.00 0.00 0.00 48 1021.6
20260901133909 74 0 0.0 0.0 0.00 0.00 0.00 47 1021.6
20260901133150 72 0 0.0 0.0 0.00 0.00 0.00 48 1021.7
20260901132432 74 0 0.0 0.0 0.00 0.00 0.00 48 1021.7
20260901131714 74 0 0.0 0.0 0.00 0.00 0.00 48 1021.8
20260901130707 74 0 0.0 0.0 0.00 0.00 0.00 48 1021.9
20260901125938 72 0 0.0 0.0 0.00 0.00 0.00 49 1021.8
20260901125208 72 0 0.0 0.0 0.00 0.00 0.00 48 1021.8
20260901124439 74 0 0.0 0.0 0.00 0.00 0.00 46 1021.9
20260901123712 76 0 0.0 0.0 0.00 0.00 0.00 44 1021.8
20260901122941 76 0 0.0 0.0 0.00 0.00 0.00 44 1022.0
20260901122212 75 0 0.0 0.0 0.00 0.00 0.00 44 1022.0
20260901121434 76 0 0.0 0.0 0.00 0.00 0.00 46 1022.0
20260901120706 76 0 0.0 0.0 0.00 0.00 0.00 45 1022.0
20260901115931 76 0 0.0 0.0 0.00 0.00 0.00 46 1022.1
20260901115155 77 0 0.0 0.0 0.00 0.00 0.00 44 1022.1
20260901114417 78 0 0.0 0.0 0.00 0.00 0.00 44 1022.0
20260901113642 76 0 0.0 0.0 0.00 0.00 0.00 46 1022.2
20260901112913 75 0 0.0 0.0 0.00 0.00 0.00 46 1022.0
20260901112146 76 0 0.0 0.0 0.00 0.00 0.00 48 1022.2
20260901111143 75 0 0.0 0.0 0.00 0.00 0.00 47 1022.2
20260901110426 74 0 0.0 0.0 0.00 0.00 0.00 50 1022.2
20260901105707 74 0 0.0 0.0 0.00 0.00 0.00 50 1022.1
20260901104950 74 0 0.0 0.0 0.00 0.00 0.00 49 1022.0
20260901104232 74 0 0.0 0.0 0.00 0.00 0.00 50 1022.2
20260901103514 73 0 0.0 0.0 0.00 0.00 0.00 51 1022.2
20260901102756 75 0 0.0 0.0 0.00 0.00 0.00 50 1022.2
20260901102037 73 0 0.0 0.0 0.00 0.00 0.00 52 1022.1
20260901101318 73 0 0.0 0.0 0.00 0.00 0.00 50 1022.2
20260901100600 72 0 0.0 0.0 0.00 0.00 0.00 53 1022.1
20260901095840 73 0 0.0 0.0 0.00 0.00 0.00 50 1022.0
20260901095123 74 0 0.0 0.0 0.00 0.00 0.00 52 1022.1
20260901094406 74 0 0.0 0.0 0.00 0.00 0.00 51 1022.0
20260901093649 73 0 0.0 0.0 0.00 0.00 0.00 55 1021.8
20260901092931 72 0 0.0 0.0 0.00 0.00 0.00 55 1022.0
20260901091929 73 0 0.0 0.0 0.00 0.00 0.00 54 1022.0
20260901091212 72 0 0.0 0.0 0.00 0.00 0.00 56 1022.2
20260901090453 72 0 0.0 0.0 0.00 0.00 0.00 56 1022.0
20260901085734 70 0 0.0 0.0 0.00 0.00 0.00 56 1022.0
20260901085017 70 0 0.0 0.0 0.00 0.00 0.00 58 1022.0
20260901084259 70 0 0.0 0.0 0.00 0.00 0.00 59 1021.8
20260901083540 70 0 0.0 0.0 0.00 0.00 0.00 56 1021.7
20260901082822 70 0 0.0 0.0 0.00 0.00 0.00 58 1021.8
20260901082104 70 0 0.0 0.0 0.00 0.00 0.00 60 1021.8
20260901081344 69 0 0.0 0.0 0.00 0.00 0.00 59 1021.6
20260901080627 69 0 0.0 0.0 0.00 0.00 0.00 58 1021.6
20260901075908 68 0 0.0 0.0 0.00 0.00 0.00 59 1021.4
20260901075148 68 0 0.0 0.0 0.00 0.00 0.00 62 1021.4
20260901074431 68 0 0.0 0.0 0.00 0.00 0.00 62 1021.4
20260901073714 67 0 0.0 0.0 0.00 0.00 0.00 62 1021.4
20260901072712 66 0 0.0 0.0 0.00 0.00 0.00 65 1021.2
20260901071954 66 0 0.0 0.0 0.00 0.00 0.00 67 1021.2
20260901071236 66 0 0.0 0.0 0.00 0.00 0.00 70 1021.4
20260901070513 65 0 0.0 0.0 0.00 0.00 0.00 71 1021.3
20260901065748 64 0 0.0 0.0 0.00 0.00 0.00 72 1021.4
20260901065027 64 0 0.0 0.0 0.00 0.00 0.00 74 1021.2
20260901064305 64 0 0.0 0.0 0.00 0.00 0.00 75 1021.3
20260901063542 64 0 0.0 0.0 0.00 0.00 0.00 76 1021.2
20260901062816 63 0 0.0 0.0 0.00 0.00 0.00 76 1021.4
20260901062049 62 0 0.0 0.0 0.00 0.00 0.00 78 1021.3
20260901061324 62 0 0.0 0.0 0.00 0.00 0.00 78 1021.2
20260901060602 62 0 0.0 0.0 0.00 0.00 0.00 80 1021.2
20260901055840 62 0 0.0 0.0 0.00 0.00 0.00 80 1021.0
20260901055117 60 0 0.0 0.0 0.00 0.00 0.00 81 1021.2
20260901054358 60 0 0.0 0.0 0.00 0.00 0.00 82 1021.0
20260901053355 60 0 0.0 0.0 0.00 0.00 0.00 82 1020.8
20260901052635 60 0 0.0 0.0 0.00 0.00 0.00 84 1021.0
20260901051916 59 0 0.0 0.0 0.00 0.00 0.00 84 1020.8
20260901051159 59 0 0.0 0.0 0.00 0.00 0.00 84 1020.8
20260901050440 58 0 0.0 0.0 0.00 0.00 0.00 84 1021.0
20260901045720 58 0 0.0 0.0 0.00 0.00 0.00 85 1020.8
20260901045001 58 0 0.0 0.0 0.00 0.00 0.00 84 1020.6
20260901044244 58 0 0.0 0.0 0.00 0.00 0.00 84 1020.6
20260901043527 58 0 0.0 0.0 0.00 0.00 0.00 84 1020.4
20260901042809 58 0 0.0 0.0 0.00 0.00 0.00 85 1020.4
20260901042050 57 0 0.0 0.0 0.00 0.00 0.00 86 1020.4
20260901041331 58 0 0.0 0.0 0.00 0.00 0.00 84 1020.2
20260901040615 58 0 0.0 0.0 0.00 0.00 0.00 83 1020.3
20260901035855 59 0 0.0 0.0 0.00 0.00 0.00 82 1020.2
20260901035136 59 0 0.0 0.0 0.00 0.00 0.00 82 1020.3
20260901034134 59 0 0.0 0.0 0.00 0.00 0.00 82 1020.1
20260901033417 60 0 0.0 0.0 0.00 0.00 0.00 81 1020.2
20260901032659 60 0 0.0 0.0 0.00 0.00 0.00 80 1020.2
20260901031942 60 0 0.0 0.0 0.00 0.00 0.00 81 1020.0
20260901031225 60 0 0.0 0.0 0.00 0.00 0.00 80 1020.1
20260901030508 60 0 0.0 0.0 0.00 0.00 0.00 80 1020.0
20260901025750 60 0 0.0 0.0 0.00 0.00 0.00 80 1020.1
20260901025033 60 0 0.0 0.0 0.00 0.00 0.00 80 1020.1
20260901024315 60 0 0.0 0.0 0.00 0.00 0.00 80 1020.1
20260901023558 60 0 0.0 0.0 0.00 0.00 0.00 79 1020.0
20260901022841 60 0 0.0 0.0 0.00 0.00 0.00 79 1020.0
20260901022125 60 0 0.0 0.0 0.00 0.00 0.00 78 1019.8
20260901015946 60 0 0.0 0.0 0.00 0.00 0.00 77 1019.6
20260901014945 60 0 0.0 0.0 0.00 0.00 0.00 76 1019.6
20260901014229 62 0 0.0 0.0 0.00 0.00 0.00 75 1019.6
20260901013514 62 0 0.0 0.0 0.00 0.00 0.00 74 1019.8
20260901012757 62 0 0.0 0.0 0.00 0.00 0.00 74 1019.6
20260901012035 62 0 0.0 0.0 0.00 0.00 0.00 74 1019.6
20260901011312 62 0 0.0 0.0 0.00 0.00 0.00 74 1019.5
20260901010544 62 0 0.0 0.0 0.00 0.00 0.00 72 1019.5
20260901005815 63 0 0.0 0.0 0.00 0.00 0.00 72 1019.5
20260901005049 63 0 0.0 0.0 0.00 0.00 0.00 71 1019.5
20260901002905 63 0 0.0 0.0 0.00 0.00 0.00 70 1019.4
20260901002139 62 0 0.0 0.0 0.00 0.00 0.00 70 1019.4
20260901001412 62 0 0.0 0.0 0.00 0.00 0.00 70 1019.4
20260901000645 62 0 0.0 0.0 0.00 0.00 0.00 70 1019.4
20260831235630 62 0 0.0 0.0 0.00 0.00 0.00 70 1019.4
20260831234854 62 0 0.0 0.0 0.00 0.00 0.00 70 1019.4
20260831234119 62 0 0.0 0.0 0.00 0.00 0.00 70 1019.2
20260831231915 62 0 0.0 0.0 0.00 0.00 0.00 72 1019.3
20260831231156 62 0 0.0 0.0 0.00 0.00 0.00 74 1019.3
20260831230438 61 0 0.0 0.0 0.00 0.00 0.00 75 1019.2
20260831225720 62 0 0.0 0.0 0.00 0.00 0.00 74 1019.1
20260831225003 62 0 0.0 0.0 0.00 0.00 0.00 74 1018.9
20260831224244 62 0 0.0 0.0 0.00 0.00 0.00 74 1019.0
20260831223526 60 0 0.0 0.0 0.00 0.00 0.00 78 1018.8
20260831222809 60 0 0.0 0.0 0.00 0.00 0.00 78 1018.8
20260831222049 60 0 0.0 0.0 0.00 0.00 0.00 77 1018.7
20260831221334 61 0 0.0 0.0 0.00 0.00 0.00 77 1018.8
20260831220332 62 0 0.0 0.0 0.00 0.00 0.00 76 1018.7
20260831215611 62 0 0.0 0.0 0.00 0.00 0.00 76 1018.7
20260831214854 62 0 0.0 0.0 0.00 0.00 0.00 75 1018.5
20260831214134 62 0 0.0 0.0 0.00 0.00 0.00 74 1018.5
20260831213416 62 0 0.0 0.0 0.00 0.00 0.00 74 1018.4
20260831212656 64 0 0.0 0.0 0.00 0.00 0.00 73 1018.2
20260831211937 64 0 0.0 0.0 0.00 0.00 0.00 73 1018.2
20260831211220 62 0 0.0 0.0 0.00 0.00 0.00 75 1018.1
20260831210502 62 0 0.0 0.0 0.00 0.00 0.00 74 1018.0
20260831205744 63 0 0.0 0.0 0.00 0.00 0.00 74 1018.0
20260831205026 62 0 0.0 0.0 0.00 0.00 0.00 74 1017.9
20260831204309 62 0 0.0 0.0 0.00 0.00 0.00 74 1017.8
20260831203550 62 0 0.0 0.0 0.00 0.00 0.00 74 1017.8
20260831202831 63 0 0.0 0.0 0.00 0.00 0.00 73 1017.8
20260831200405 64 0 0.0 0.0 0.00 0.00 0.00 72 1017.6
20260831195645 64 0 0.0 0.0 0.00 0.00 0.00 71 1017.4
20260831194927 64 0 0.0 0.0 0.00 0.00 0.00 70 1017.3
20260831194209 65 0 0.0 0.0 0.00 0.00 0.00 70 1017.4
20260831193450 64 0 0.0 0.0 0.00 0.00 0.00 70 1017.4
20260831192731 65 0 0.0 0.0 0.00 0.00 0.00 69 1017.4
20260831192012 65 0 0.0 0.0 0.00 0.00 0.00 70 1017.2
20260831191253 64 0 0.0 0.0 0.00 0.00 0.00 70 1017.1
20260831190534 64 0 0.0 0.0 0.00 0.00 0.00 68 1017.2
20260831185814 65 0 0.0 0.0 0.00 0.00 0.00 67 1017.0
20260831185056 66 0 0.0 0.0 0.00 0.00 0.00 66 1017.1
20260831184338 66 0 0.0 0.0 0.00 0.00 0.00 65 1017.0
20260831183620 66 0 0.0 0.0 0.00 0.00 0.00 64 1017.0
20260831182902 67 0 0.0 0.0 0.00 0.00 0.00 62 1017.0